Regional Weather Roundup
Issued by NWS

Home | Current Version | Previous Version | Text Only | Print | Product List | Glossary Off
Versions: 1 2 3 4 5 6 7 8 9 10 11 12 13 14 15 16 17 18 19 20 21 22 23 24 25 26 27 28 29 30 31 32 33 34 35 36 37 38 39 40 41 42 43 44 45 46 47 48 49 50

000
ASUS43 KBIS 270120
RWRND

NORTH DAKOTA REGIONAL WEATHER ROUNDUP
NATIONAL WEATHER SERVICE BISMARCK ND
700 PM CST FRI DEC 26 2014

NOTE: "FAIR" INDICATES FEW OR NO CLOUDS BELOW 12,000 FEET WITH NO
SIGNIFICANT WEATHER AND/OR OBSTRUCTIONS TO VISIBILITY.


NDZ001>003-009>011-017-270200-
NORTHWEST NORTH DAKOTA

CITY           SKY/WX    TMP DP  RH WIND       PRES   REMARKS
WILLISTON      CLOUDY    20  14  77 S5        30.13F WCI  13
MINOT          CLOUDY     7   0  73 CALM      30.17S
MINOT AFB      CLOUDY     6   1  80 CALM      30.17S
$$

NDZ018>021-031>035-040>046-270200-
SOUTHWEST NORTH DAKOTA

CITY           SKY/WX    TMP DP  RH WIND       PRES   REMARKS
BISMARCK       CLEAR      5   2  87 SE3       30.20S
DICKINSON      PTCLDY    13   8  81 E7        30.11R WCI   3
GARRISON         N/A      7   4  87 CALM      30.16S
HETTINGER ARPT CLEAR     12   8  84 CALM      30.12S
$$

NDZ004>008-012>016-024-026-027-054-270200-
NORTHEAST NORTH DAKOTA

CITY           SKY/WX    TMP DP  RH WIND       PRES   REMARKS
GRAND FORKS    CLEAR      5   0  79 NW9       30.25S WCI  -9
GRND FRKS AFB  CLEAR      5   1  84 N9        30.25R WCI  -9
DEVILS LAKE    PTCLDY     1  -8  66 W6        30.18F WCI -10
$$

NDZ022-023-025-028>030-036>039-047>053-270200-
SOUTHEAST NORTH DAKOTA

CITY           SKY/WX    TMP DP  RH WIND       PRES   REMARKS
FARGO          MOCLDY    15  10  80 N16       30.22R WCI  -1
JAMESTOWN      PTCLDY     5   2  87 NW5       30.20S WCI  -4
$$



USA.gov is the U.S. government's official web portal to all federal, state and local government web resources and services.